Teterboro, NJ

3:11 PM EDT on March 29, 2017 (GMT -0400)
Teterboro

Weather History for KTEB - June, 2013

Change the Weather History Date:

Monday, June 10, 2013

  Actual Average Record
Temperature  
Mean Temperature 66 °F -  
Max Temperature 71 °F 76 °F 98 °F (2008)
Min Temperature 62 °F 57 °F 50 °F (1980)
Cooling Degree Days 1    
Growing Degree Days 16 (Base 50)    
Moisture  
Dew Point 63 °F    
Average Humidity 89    
Maximum Humidity 100    
Minimum Humidity 73    
Precipitation  
Precipitation 1.48 in - - ()
Sea Level Pressure  
Sea Level Pressure 30.02 in    
Wind  
Wind Speed 5 mph (East)    
Max Wind Speed 15 mph    
Max Gust Speed 25 mph    
Visibility 4 miles    
Events Rain    
Averages and records for this station are not official NWS values.
T = Trace of Precipitation, MM = Missing Value Source: NWS Daily Summary

Daily Weather History Graph

Daily Weather History Graph

Search for Another Location

Airport or City:

Trip Planner

Search our weather history database for the weather conditions in past years. The results will help you decide how hot, cold, wet, or windy it might be!

Date:

Astronomy

Jun. 10, 2013 Rise Set
Actual Time 5:24 AM EDT 8:27 PM EDT
Civil Twilight 4:50 AM EDT 9:00 PM EDT
Nautical Twilight 4:08 AM EDT 9:43 PM EDT
Astronomical Twilight 3:18 AM EDT 10:33 PM EDT
Moon 7:11 AM EDT (6/10) 9:51 PM EDT (6/10)
Length of Visible Light 16h 09m
Length of Day
15h 03m
Waxing Crescent, 4% of the Moon is Illuminated
Jun 10
Waxing Crescent
Jun 16
First Quarter
Jun 23
Full
Jun 30
Last Quarter
Jul 8
New

Hourly Weather History & Observations

Time (EDT) Temp. Dew Point Humidity Pressure Visibility Wind Dir Wind Speed Gust Speed Precip Events Conditions
12:51 AM 70.0 °F 61.0 °F 73% 30.15 in 10.0 mi Calm Calm - 0.00 in   Overcast
1:51 AM 68.0 °F 61.0 °F 78% 30.15 in 10.0 mi Calm Calm - N/A   Scattered Clouds
2:51 AM 68.0 °F 61.0 °F 78% 30.14 in 10.0 mi Calm Calm - N/A   Mostly Cloudy
3:51 AM 66.9 °F 62.1 °F 84% 30.13 in 10.0 mi Calm Calm - 0.00 in   Scattered Clouds
4:51 AM 66.9 °F 62.1 °F 84% 30.13 in 10.0 mi Calm Calm - N/A   Overcast
5:51 AM 66.9 °F 62.1 °F 84% 30.13 in 8.0 mi NNE 3.5 mph - N/A   Overcast
6:51 AM 66.9 °F 62.1 °F 84% 30.13 in 8.0 mi NE 3.5 mph - N/A   Mostly Cloudy
7:51 AM 68.0 °F 62.1 °F 81% 30.12 in 7.0 mi Variable 3.5 mph - 0.00 in   Clear
8:51 AM 68.0 °F 63.0 °F 84% 30.13 in 6.0 mi Variable 3.5 mph - 0.00 in Rain Light Rain
9:51 AM 69.1 °F 64.9 °F 87% 30.11 in 5.0 mi Variable 3.5 mph - 0.01 in Rain Light Rain
10:51 AM 70.0 °F 64.9 °F 84% 30.11 in 3.0 mi SE 8.1 mph - 0.02 in Rain Light Rain
11:16 AM 69.8 °F 66.2 °F 88% 30.11 in 2.5 mi SE 5.8 mph - 0.02 in Rain Light Rain
11:24 AM 69.8 °F 64.4 °F 83% 30.11 in 2.0 mi SE 8.1 mph - 0.05 in Rain Light Rain
11:49 AM 68.0 °F 64.4 °F 88% 30.10 in 2.0 mi ESE 5.8 mph - 0.09 in Rain Light Rain
11:51 AM 68.0 °F 64.9 °F 90% 30.10 in 2.0 mi ESE 5.8 mph - 0.10 in Rain Light Rain
12:06 PM 68.0 °F 64.4 °F 88% 30.10 in 3.0 mi ESE 11.5 mph - 0.02 in Rain Light Rain
12:14 PM 68.0 °F 64.4 °F 88% 30.10 in 3.0 mi SE 13.8 mph 19.6 mph 0.02 in Rain Light Rain
12:28 PM 66.2 °F 62.6 °F 88% 30.09 in 2.0 mi SSE 15.0 mph 24.2 mph 0.06 in Rain Rain
12:39 PM 66.2 °F 64.4 °F 94% 30.08 in 4.0 mi ESE 13.8 mph - 0.12 in Rain Light Rain
12:51 PM 66.9 °F 64.0 °F 90% 30.08 in 4.0 mi ESE 11.5 mph 18.4 mph 0.12 in   Overcast
1:47 PM 66.2 °F 62.6 °F 88% 30.06 in 10.0 mi ESE 10.4 mph 25.3 mph N/A   Overcast
1:51 PM 66.0 °F 62.1 °F 87% 30.06 in 3.0 mi Variable 6.9 mph 18.4 mph 0.00 in Rain Light Rain
1:58 PM 66.2 °F 62.6 °F 88% 30.05 in 2.0 mi East 10.4 mph 20.7 mph 0.03 in Rain Light Rain
2:02 PM 64.4 °F 62.6 °F 94% 30.05 in 3.0 mi ESE 11.5 mph 19.6 mph 0.04 in Rain Light Rain
2:34 PM 66.2 °F 62.6 °F 88% 30.04 in 4.0 mi East 9.2 mph 17.3 mph 0.25 in Rain Rain
2:40 PM 66.2 °F 62.6 °F 88% 30.04 in 1.0 mi East 12.7 mph 19.6 mph 0.28 in Rain Heavy Rain
2:51 PM 66.0 °F 63.0 °F 90% 30.03 in 1.0 mi East 6.9 mph - 0.40 in Rain Rain
2:53 PM 66.2 °F 62.6 °F 88% 30.03 in 4.0 mi East 3.5 mph - 0.00 in Rain Rain
3:12 PM 66.2 °F 62.6 °F 88% 30.02 in 4.0 mi East 5.8 mph 16.1 mph 0.02 in Rain Light Rain
3:51 PM 66.0 °F 63.0 °F 90% 29.99 in 4.0 mi East 6.9 mph - 0.03 in Rain Light Rain
4:37 PM 64.4 °F 62.6 °F 94% 29.97 in 1.5 mi East 8.1 mph - 0.07 in Rain Heavy Rain
4:51 PM 64.9 °F 63.0 °F 93% 29.97 in 1.5 mi East 9.2 mph - 0.13 in Rain Rain
4:58 PM 64.4 °F 62.6 °F 94% 29.96 in 4.0 mi East 6.9 mph - 0.00 in Rain Rain
5:24 PM 66.2 °F 62.6 °F 88% 29.95 in 4.0 mi East 8.1 mph 17.3 mph 0.03 in Rain Light Rain
5:51 PM 66.9 °F 63.0 °F 87% 29.95 in 4.0 mi East 6.9 mph 21.9 mph 0.08 in Rain Rain
6:40 PM 64.4 °F 62.6 °F 94% 29.93 in 2.5 mi East 5.8 mph - 0.07 in Rain Rain
6:51 PM 64.9 °F 63.0 °F 93% 29.94 in 3.0 mi East 5.8 mph - 0.09 in Rain Rain
7:51 PM 64.9 °F 63.0 °F 93% 29.91 in 3.0 mi East 5.8 mph - 0.12 in Rain Light Rain
8:51 PM 63.0 °F 62.1 °F 97% 29.87 in 3.0 mi ENE 8.1 mph - 0.09 in Rain Light Rain
9:14 PM 62.6 °F 60.8 °F 94% 29.87 in 2.5 mi ENE 6.9 mph - 0.09 in Rain Rain
9:31 PM 62.6 °F 60.8 °F 94% 29.88 in 3.0 mi East 4.6 mph - 0.17 in Rain Light Rain
9:51 PM 63.0 °F 61.0 °F 93% 29.88 in 3.0 mi ENE 8.1 mph - 0.18 in Rain Light Rain
9:58 PM 62.6 °F 60.8 °F 94% 29.88 in 10.0 mi ENE 9.2 mph - N/A   Overcast
10:51 PM 63.0 °F 61.0 °F 93% 29.86 in 3.0 mi East 5.8 mph - N/A   Overcast
11:38 PM 62.6 °F 62.6 °F 100% 29.83 in 2.5 mi ESE 4.6 mph - 0.03 in Rain Rain
11:51 PM 63.0 °F 62.1 °F 97% 29.82 in 2.5 mi East 9.2 mph - 0.11 in Rain Light Rain
11:58 PM 62.6 °F 62.6 °F 100% 29.81 in 4.0 mi East 5.8 mph - 0.00 in Rain Light Rain